(352509) = 2008 CP75

Discovered at La Sagra on 2008-02-10 by La Sagra.

Orbit

Orbit type: Main Belt

Note: WebGL enabled browser required.

epoch2024-03-31.0
epoch JD2460400.5
perihelion date2019-11-17.03277
perihelion JD2458804.53277
argument of perihelion (°)273.68014
ascending node (°)322.43409
inclination (°)12.06489
eccentricity0.1964306
perihelion distance (AU)2.4485495
Tisserand w.r.t. Jupiter3.2
ΔV w.r.t. Earth (km/sec)10.5
semimajor axis (AU)3.0470915
mean anomaly (°)295.73286
mean daily motion (°/day)0.18530010
aphelion distance (AU)3.646
period (years)5.32
P-vector [x]-0.54409999
P-vector [y]-0.66264609
P-vector [z]-0.51464101
Q-vector [x]0.82928636
Q-vector [y]-0.51789976
Q-vector [z]-0.20991418
absolute magnitude15.97
phase slope0.15
uncertainty0
referenceMPEC 2024-E73
observations used271
oppositions12
arc length (days)7666
first opposition used2003
last opposition used2024
residual rms (arc-secs)0.75
perturbers coarse indicatorM-v
perturbers precise indicator003Ek
first observation date used2003-03-10.0
last observation date used2024-03-05.0
computer nameMPCLINUX
JD of orbit computation2456760.659316
perihelion JD uncertainty (days)1.1413E-04
argument of perihelion uncertainty (°)3.2517E-05
ascending node uncertainty (°)2.4318E-05
inclination uncertainty (°)8.5924E-06
eccentricity uncertainty 1.0520E-07
perihelion distance uncertainty (AU)3.1161E-07
Minimum Orbit Intersection Distances (in AU)
for orbit epoch: 2460400.5, reference: E2024-E73
Mercury1.9958
Venus1.75035
Earth1.47413
Mars0.97869
Jupiter1.66284
Saturn5.59963
Uranus15.4293
Neptune26.3173

Observations

274 total observations over interval: 2003 03 10.28756 – 2024 03 05.175615
These data are available for download (format description).

Date (UT) J2000 RA J2000 Dec Magn Location Ref
2003 03 10.28756 11 34 42.23 -08 06 20.5 19.2 R 699 – Lowell Observatory-LONEOS MPS 247616
2003 03 10.30582 11 34 41.22 -08 06 18.2   699 – Lowell Observatory-LONEOS MPS 247616
2003 03 10.32407 11 34 40.15 -08 06 17.9   699 – Lowell Observatory-LONEOS MPS 247616
2003 03 10.34226 11 34 39.13 -08 06 18.2   699 – Lowell Observatory-LONEOS MPS 247616
2003 03 27.19375 11 19 28.14 -07 41 04.2 20.2   644 – Palomar Mountain/NEAT MPS 247616
2003 03 27.19493 11 19 28.07 -07 41 04.1 19.7   644 – Palomar Mountain/NEAT MPS 247616
2003 03 27.21458 11 19 27.04 -07 41 01.8 20.7   644 – Palomar Mountain/NEAT MPS 247616
2003 03 27.21575 11 19 26.99 -07 41 01.9 19.7   644 – Palomar Mountain/NEAT MPS 247616
2003 03 27.23541 11 19 25.92 -07 40 59.2 20.6   644 – Palomar Mountain/NEAT MPS 247616
2003 03 27.23657 11 19 25.87 -07 40 59.2 19.8   644 – Palomar Mountain/NEAT MPS 247616
2008 01 11.40845 10 02 52.26 +14 04 53.6 20.9 V G96 – Mt. Lemmon Survey MPS 243599
2008 01 11.41604 10 02 52.00 +14 04 53.5 20.8 V G96 – Mt. Lemmon Survey MPS 243599
2008 01 11.42369 10 02 51.79 +14 04 53.8 20.5 V G96 – Mt. Lemmon Survey MPS 243599
2008 01 11.43128 10 02 51.57 +14 04 53.6 20.4 V G96 – Mt. Lemmon Survey MPS 243599
2008 01 11.45297 10 02 50.85 +14 04 53.3 20.5 V 691 – Steward Observatory, Kitt Peak-Spacewatch MPS 243599
2008 01 11.47062 10 02 50.30 +14 04 53.0 20.4 V 691 – Steward Observatory, Kitt Peak-Spacewatch MPS 243599
2008 01 11.48826 10 02 49.77 +14 04 52.8 20.6 V 691 – Steward Observatory, Kitt Peak-Spacewatch MPS 243599
2008 01 15.48154 10 00 41.87 +14 04 40.6 20.1 V 691 – Steward Observatory, Kitt Peak-Spacewatch MPS 243599
2008 01 15.48400 10 00 41.75 +14 04 41.1 20.4 V 691 – Steward Observatory, Kitt Peak-Spacewatch MPS 243599
2008 01 15.49964 10 00 41.21 +14 04 41.0 20.2 V 691 – Steward Observatory, Kitt Peak-Spacewatch MPS 243599
2008 01 15.50210 10 00 41.07 +14 04 40.6 20.7 V 691 – Steward Observatory, Kitt Peak-Spacewatch MPS 243599
2008 01 15.51775 10 00 40.62 +14 04 40.0 20.0 V 691 – Steward Observatory, Kitt Peak-Spacewatch MPS 243599
2008 01 15.52045 10 00 40.46 +14 04 40.4 20.6 V 691 – Steward Observatory, Kitt Peak-Spacewatch MPS 243599
2008 02 07.20634 09 42 56.32 +14 20 03.1 19.9 V 691 – Steward Observatory, Kitt Peak-Spacewatch MPS 242268
2008 02 07.22396 09 42 55.31 +14 20 04.6 19.9 V 691 – Steward Observatory, Kitt Peak-Spacewatch MPS 242268
2008 02 07.24157 09 42 54.32 +14 20 05.1 19.9 V 691 – Steward Observatory, Kitt Peak-Spacewatch MPS 242268
2008 02 10.96405 09 39 24.85 +14 23 44.7 19.7 R J75 – OAM Observatory, La Sagra MPS 237754
2008 02 10.97865 09 39 24.00 +14 23 44.4 19.6 R J75 – OAM Observatory, La Sagra MPS 237754
2008 02 10.99324 09 39 23.12 +14 23 45.9 19.8 R J75 – OAM Observatory, La Sagra MPS 237754
2008 02 11.27147 09 39 07.29 +14 24 03.2 19.8   704 – Lincoln Laboratory ETS, New Mexico MPS 239180
2008 02 11.28370 09 39 06.58 +14 24 04.4 20.1   704 – Lincoln Laboratory ETS, New Mexico MPS 239180
2008 02 11.29597 09 39 05.84 +14 24 04.5 20.3   704 – Lincoln Laboratory ETS, New Mexico MPS 239180
2008 02 11.30837 09 39 05.08 +14 24 05.4 19.9   704 – Lincoln Laboratory ETS, New Mexico MPS 239180
2008 02 12.02383 09 38 24.43 +14 24 46.1 19.5 R 620 – Observatorio Astronomico de Mallorca MPS 237754
2008 02 12.03837 09 38 23.60 +14 24 46.7 19.4 R 620 – Observatorio Astronomico de Mallorca MPS 237754
2008 02 12.05293 09 38 22.76 +14 24 47.0 19.7 R 620 – Observatorio Astronomico de Mallorca MPS 237754
2008 03 06.18239 09 18 00.96 +14 36 22.0 20.6 V 691 – Steward Observatory, Kitt Peak-Spacewatch MPS 242268
2008 03 06.19867 09 18 00.20 +14 36 22.2 20.5 V 691 – Steward Observatory, Kitt Peak-Spacewatch MPS 242268
2008 03 06.21842 09 17 59.30 +14 36 22.1 20.1 V 691 – Steward Observatory, Kitt Peak-Spacewatch MPS 242268
2008 03 08.18187 09 16 35.26 +14 35 55.3   691 – Steward Observatory, Kitt Peak-Spacewatch MPS 242268
2008 03 08.19263 09 16 34.77 +14 35 55.3   691 – Steward Observatory, Kitt Peak-Spacewatch MPS 242268
2008 03 08.20338 09 16 34.32 +14 35 54.7   691 – Steward Observatory, Kitt Peak-Spacewatch MPS 242268
2008 03 10.12466 09 15 16.68 +14 35 11.8 20.4 V 691 – Steward Observatory, Kitt Peak-Spacewatch MPS 242268
2008 03 10.14184 09 15 15.96 +14 35 11.2 20.5 V 691 – Steward Observatory, Kitt Peak-Spacewatch MPS 242268
2008 03 10.15904 09 15 15.24 +14 35 10.7 20.2 V 691 – Steward Observatory, Kitt Peak-Spacewatch MPS 242268
2008 03 12.12097 09 14 00.86 +14 34 09.5 20.3 V 691 – Steward Observatory, Kitt Peak-Spacewatch MPS 243599
2008 03 12.13525 09 14 00.33 +14 34 08.8 20.4 V 691 – Steward Observatory, Kitt Peak-Spacewatch MPS 243599
2008 03 12.14605 09 13 59.90 +14 34 08.5 20.4 V 691 – Steward Observatory, Kitt Peak-Spacewatch MPS 243599
2008 03 28.14149 09 07 17.18 +14 14 32.7 20.6 V G96 – Mt. Lemmon Survey MPS 244807
2008 03 28.14850 09 07 17.04 +14 14 32.1 20.6 V G96 – Mt. Lemmon Survey MPS 244807
2008 03 28.15555 09 07 16.93 +14 14 31.3 20.9 V G96 – Mt. Lemmon Survey MPS 244807
2008 03 28.16256 09 07 16.82 +14 14 30.8 20.6 V G96 – Mt. Lemmon Survey MPS 244807
2010 06 22.741828 00 00 07.92 +04 45 28.4   C51 – WISE MPS 335010
2010 06 22.874132 00 00 12.12 +04 46 23.0   C51 – WISE MPS 335010
2010 06 23.006435 00 00 16.17 +04 47 18.1   C51 – WISE MPS 335010
2010 06 23.138740 00 00 20.26 +04 48 15.8   C51 – WISE MPS 335010
2010 06 23.27104 00 00 24.33 +04 49 11.3   C51 – WISE MPS 335010
2010 06 23.337131 00 00 26.393 +04 49 38.57   C51 – WISE MPS 904156
2010 06 23.469435 00 00 30.35 +04 50 31.4   C51 – WISE MPS 335010
2010 06 23.535650 00 00 32.258 +04 51 01.98   C51 – WISE MPS 904156
2010 06 23.734043 00 00 38.21 +04 52 24.6   C51 – WISE MPS 335010
2010 06 23.866347 00 00 42.14 +04 53 18.3   C51 – WISE MPS 335010
2010 10 07.23269 23 22 48.46 +07 12 35.2 20.3 V G96 – Mt. Lemmon Survey MPS 349534
2010 10 07.23774 23 22 48.25 +07 12 34.4 20.1 V G96 – Mt. Lemmon Survey MPS 349534
2010 10 07.24278 23 22 48.03 +07 12 33.0 20.2 V G96 – Mt. Lemmon Survey MPS 349534
2010 10 07.24786 23 22 47.85 +07 12 32.0 20.0 V G96 – Mt. Lemmon Survey MPS 349534
2011 11 30.41691 03 08 19.744 +34 30 25.91 21.4 w F51 – Pan-STARRS 1, Haleakala MPS 402442
2011 11 30.43049 03 08 19.028 +34 30 22.08 21.5 w F51 – Pan-STARRS 1, Haleakala MPS 402442
2011 11 30.44405 03 08 18.341 +34 30 18.34 21.3 w F51 – Pan-STARRS 1, Haleakala MPS 402442
2011 11 30.45757 03 08 17.647 +34 30 14.25 21.4 w F51 – Pan-STARRS 1, Haleakala MPS 402442
2012 12 23.56071 08 13 53.524 +28 45 11.32 20.9 w F51 – Pan-STARRS 1, Haleakala MPS 448519
2012 12 23.57517 08 13 52.872 +28 45 12.60 20.9 w F51 – Pan-STARRS 1, Haleakala MPS 448519
2012 12 23.58963 08 13 52.229 +28 45 13.59 21.1 w F51 – Pan-STARRS 1, Haleakala MPS 448519
2012 12 23.60397 08 13 51.597 +28 45 14.75 20.8 w F51 – Pan-STARRS 1, Haleakala MPS 448519
2013 01 16.49617 07 52 19.065 +29 05 54.90 20.5 w F51 – Pan-STARRS 1, Haleakala MPS 450979
2013 01 16.51064 07 52 18.176 +29 05 54.98 20.5 w F51 – Pan-STARRS 1, Haleakala MPS 450979
2013 01 16.52513 07 52 17.277 +29 05 54.86 20.5 w F51 – Pan-STARRS 1, Haleakala MPS 450979
2013 01 16.53962 07 52 16.383 +29 05 54.72 20.5 w F51 – Pan-STARRS 1, Haleakala MPS 450979
2013 01 31.15287 07 38 01.87 +28 55 43.5   691 – Steward Observatory, Kitt Peak-Spacewatch MPS 453642
2013 01 31.22345 07 37 57.92 +28 55 37.5   691 – Steward Observatory, Kitt Peak-Spacewatch MPS 453642
2013 01 31.27566 07 37 55.02 +28 55 32.9   691 – Steward Observatory, Kitt Peak-Spacewatch MPS 453642
2014 03 12.51235 13 55 18.453 -27 44 40.48 19.5 i F51 – Pan-STARRS 1, Haleakala MPS 506276
2014 03 12.52242 13 55 18.264 -27 44 44.34 19.8 i F51 – Pan-STARRS 1, Haleakala MPS 506276
2014 03 12.53367 13 55 18.058 -27 44 48.61 19.7 i F51 – Pan-STARRS 1, Haleakala MPS 506276
2014 03 27.45098 13 48 04.690 -28 59 26.57 20.0 g F51 – Pan-STARRS 1, Haleakala MPS 508476
2014 03 27.46249 13 48 04.192 -28 59 28.85 19.8 g F51 – Pan-STARRS 1, Haleakala MPS 508476
2014 04 06.35220 13 40 25.11 -29 22 07.8 19.1 V 703 – Catalina Sky Survey MPS 511042
2014 04 06.35670 13 40 24.95 -29 22 08.7 19.3 V 703 – Catalina Sky Survey MPS 511042
2014 04 06.36122 13 40 24.57 -29 22 07.9 19.6 V 703 – Catalina Sky Survey MPS 511042
